パンスターズ彗星

C/2020 R2 ( PanSTARRS )

English version
Home page
Updated on September 18, 2021

---------------------------------------------------------------------

・ プロフィール

発見日 2020年9月12日
発見光度 20.5等
発見者 Pan-STARRS2 1.8-m Ritchey-Chretien reflector (Haleakala)

・ 写真集

・ 軌道要素

Epoch 2022 Mar. 2.0 TT = JDT 2459640.5
T 2022 Feb. 24.54207 TT                                 Rudenko
q   4.6918246            (2000.0)            P               Q
z  +0.0024525      Peri.  211.74144     +0.73908658     -0.64050266
 +/-0.0000022      Node   195.09352     +0.64977638     +0.59625459
e   0.9884933      Incl.   53.22846     -0.17759978     -0.48398017
From 155 observations 2020 Aug. 18-2021 Aug. 29, mean residual 0".4.

・ 光度変化

        m1 = 8.5 + 5 logΔ + 10.0 log r

---------------------------------------------------------------------

軌道要素はM.P.E.C. 2021-R75に掲載されたものです。
光度グラフはComet for Windowsで作成したものです。

---------------------------------------------------------------------

Copyright(C) Seiichi Yoshida (comet@aerith.net). All rights reserved.